COSMOS 1275 DEB, 12700

Orbit data source: Space-Track

COSMOS 1275 DEB, 12700 is space debris in LEO originally from a launch on Thu, 04 Jun 1981 UTC launched from the Plesetsk Missile And Space Complex (PKMTR). Debris objects in space refer to the collection of defunct objects orbiting the Earth. Examples of debris include non-operational satellites, rocket bodies, and fragments generated from explosions, collisions, or faulty payload assembly.

Loading next visibility...
Identifier
12700, 1981-053AU
Orbit
LEO
Country
Flag of CISCIS
Related business
Manufacturer
Unknown
Mission
Spacecraft
Bus & Motor
Unknown
Mass
Unknown
Launch date (UTC)
1981-06-04 (45 years ago)
Launch vehicle
Unknown
Launch site
Plesetsk Missile And Space Complex (PKMTR)
Object type
Payload
Rocket body
Debris
Shape & HBR
Unknown shape, 0.1 m
Radar Cross Section
Small (<0.1 m²)

Expand to show TLE details & history
Last TLE update: 17 hours ago

TLE from 17 hours ago
0 COSMOS 1275 DEB
1 12700U 81053AU  26035.29118948  .00001458  00000-0  79967-3 0  9994
2 12700  82.7815 335.1251 0048780 156.1993 204.1454 14.10602867268432
Epoch: 2026-02-04T06:59Z
TLE epoch observation values (Epoch: 2026-02-04T06:59:18.771Z)
Latitude
-0.00001°
Longitude
95.83701°
Altitude
892.496 km
Speed
7.389 km/s
True Right ascension
22h 20m 30s
True Declination
0° 00' 00"
Sunlit
Object was in daylight at epoch
Visualization orbit readout
Latitude
Unknown
Longitude
Unknown
Altitude
Unknown
Speed
Unknown
Apparent Right ascension
Unknown
Apparent Declination
Unknown
Sunlit
N/A
Visualization observer readout
Local Sidereal Time
01:40:25
Azimuth
Unknown
Elevation
Unknown
Doppler factor
Unknown
Orbital elements
Apogee altitude
889.696 km
Perigee altitude
819.135 km
Semi-major axis
7,232.552 km
Eccentricity
0.00488
Inclination
82.7815°
RAAN
335.1251°
Arg. of periapsis
156.1993°
True anomaly
203.91801°
Mean anomaly
204.1454°
Eccentric anomaly
204.03158°
Mean motion
3.52863 °/min
Orbital period
102.02 mins
BSTAR
0.00079967
Loading maneuver chart data...
Computing Atmospheric mass density...

Documentation

Showing up to 5 results
|